GFSMW_con_mlcape_000.txt.gz
CAPE
1794 1907 1768 1954 2306 2392 2701 2657 2592 2546 2143 2101 1626 984 863 756 812 486 528 620 416 542 512 652 626 485 550 474 562 355 220 384 448 438 318 262 486 865 943 496 392 507 691
1369 1980 2180 2175 2337 2551 2560 2592 2381 2402 2036 1546 1110 920 960 909 520 862 402 141 364 369 501 448 786 541 411 487 463 370 202 297 379 265 175 133 275 747 863 711 601 307 397
1426 1767 2288 2608 2686 2703 2684 2456 2164 1865 1806 1429 1221 1074 723 459 362 276 208 355 184 307 410 412 501 599 633 374 441 437 230 231 369 329 192 111 158 216 331 427 424 444 412
1070 1855 2844 3044 3045 2901 2755 2608 2040 2155 1866 1414 1050 921 727 242 244 137 152 134 184 440 348 359 433 596 718 368 745 371 220 190 174 204 220 296 335 169 228 165 312 311 240
1035 2624 2831 2951 2564 2890 2740 2562 2296 2296 1819 1729 832 773 279 93 136 82 92 320 372 478 338 295 313 602 784 629 410 467 307 152 97 124 157 243 292 199 91 99 65 296 252
2643 3076 2950 3010 602 1448 2229 2541 2177 1925 1419 1058 816 536 453 399 408 383 383 280 375 407 342 266 402 521 604 460 345 424 355 153 161 171 132 171 140 150 176 62 89 124 291
1832 625 189 148 116 1525 1509 945 2015 1702 1180 875 576 476 401 95 194 255 160 290 268 223 218 241 341 445 578 483 385 312 126 121 86 65 133 168 186 165 113 99 81 102 223
944 608 1086 2037 1796 1412 1114 752 1711 1269 703 909 484 479 188 16 109 178 230 42 30 114 164 356 369 338 393 350 325 451 151 156 149 153 125 200 191 107 45 62 53 68 147
1719 775 394 7 951 997 869 1253 1093 956 723 480 579 451 336 115 93 243 257 116 121 140 324 338 314 274 285 473 233 151 165 165 114 92 39 13 17 157 232 172 192 110 24
1310 1152 1370 1002 759 907 958 799 807 793 631 554 737 461 94 100 104 120 174 186 145 215 452 397 272 177 171 214 214 216 210 92 62 16 17 1 0 120 154 207 184 186 148
1541 1202 674 698 704 827 753 662 598 718 727 378 589 410 6 107 95 91 103 165 222 203 127 179 367 308 154 140 167 213 110 46 4 1 38 3 0 112 142 91 163 92 102
1408 1035 1124 1102 859 828 960 498 441 440 671 700 628 374 110 53 341 68 139 214 233 189 69 105 117 131 149 131 161 105 32 7 15 38 62 52 55 155 156 45 52 123 179
1711 1392 1308 1438 1185 1278 1243 626 74 563 648 1051 454 444 360 302 285 220 107 125 148 111 74 142 100 88 7 0 0 0 0 0 0 0 0 0 0 12 13 72 83 152 176
1884 1626 1519 1565 1513 1495 1588 1090 737 435 568 779 784 418 374 285 292 381 318 189 119 80 43 33 73 86 46 3 0 0 0 0 0 0 0 0 1 0 0 0 0 3 9
2233 1880 1790 1679 1489 1394 1017 1334 1305 588 758 454 781 430 170 306 173 450 328 244 153 59 0 0 0 2 0 0 0 0 0 0 0 0 0 0 0 0 0 0 0 0 5
1716 1792 1899 1907 1730 1590 1242 1304 1233 1131 752 386 716 310 137 142 128 281 134 148 146 68 32 13 5 6 0 0 0 0 0 0 0 0 0 0 0 0 0 0 0 0 1
1573 1262 1208 1110 1036 868 877 1050 1312 1411 1259 563 378 154 122 187 93 94 130 151 118 71 27 0 0 0 0 0 1 1 0 0 0 0 0 0 0 0 0 0 0 0 0
871 786 619 588 381 226 231 243 325 500 1237 833 395 141 60 80 176 111 96 88 19 0 0 0 0 0 0 0 0 15 0 0 0 0 0 0 0 0 0 0 0 0 0
390 147 26 4 2 2 1 2 49 116 459 1033 514 154 93 70 48 92 61 10 0 0 0 0 0 0 0 0 0 0 0 0 0 0 0 0 0 0 0 0 0 0 0
42 1 2 2 1 3 4 0 1 0 83 100 145 2 0 0 2 0 0 0 0 0 0 0 0 0 0 0 0 0 0 0 0 0 0 0 0 0 0 0 0 0 0
1 2 0 2 3 4 4 1 3 2 5 5 3 1 3 3 5 0 0 0 0 0 1 3 1 0 0 0 0 0 0 0 0 0 0 0 0 0 0 0 0 0 0
2 2 2 3 5 6 3 4 5 4 5 6 6 7 5 5 1 0 0 0 0 0 1 0 0 1 1 0 0 0 0 0 0 0 0 0 0 0 0 0 0 0 0
3 4 2 3 4 4 4 4 4 3 4 6 7 7 5 5 3 3 3 0 0 0 0 1 2 3 1 0 0 0 0 0 0 0 0 0 0 0 0 0 0 0 0
3 3 4 3 3 4 4 4 4 3 3 5 4 3 4 2 2 1 2 0 1 1 0 0 0 0 0 0 0 0 0 0 0 0 0 0 0 0 0 0 0 0 0
3 3 3 3 2 1 2 2 2 1 2 1 0 0 0 0 0 0 0 0 0 0 0 0 0 0 0 0 0 0 0 0 0 0 0 0 0 0 0 0 0 0 0
3 3 2 2 1 0 0 1 1 0 0 0 0 0 0 0 0 0 0 0 0 0 0 0 0 0 0 0 0 0 0 0 0 0 0 0 0 0 0 0 0 0 0

GFSMW_con_mlcape_003.txt.gz
CAPE
1487 1588 1681 1850 2190 2227 2304 2262 2456 2470 2167 2239 1389 1186 806 780 572 517 488 605 462 385 350 320 380 474 389 231 228 368 218 58 436 388 306 320 328 120 406 485 517 524 635
1478 1381 1575 1963 1715 2029 2122 2118 2254 2220 1948 1814 1460 1063 605 561 498 367 387 381 210 264 257 398 387 412 433 410 355 299 239 254 315 167 131 79 132 233 514 692 441 366 555
1575 1514 918 25 1001 1926 2069 2052 2004 2014 1690 1441 1131 928 714 463 325 270 202 185 159 125 142 161 237 440 402 344 396 305 210 152 292 205 35 63 48 129 322 566 509 444 347
1922 1777 309 169 789 1924 2065 1997 1993 1728 1404 1205 867 678 596 462 67 78 113 132 102 111 163 125 197 364 475 391 339 284 202 184 95 199 196 134 164 78 43 245 357 508 432
1855 1708 1110 1752 2198 2203 1748 590 1855 1855 1337 1247 782 552 378 124 151 94 51 57 35 68 138 222 203 318 328 437 405 259 175 149 117 64 70 87 142 150 83 46 122 367 339
2499 2861 2423 1720 835 2055 796 375 1839 1367 976 585 460 225 276 40 17 1 13 40 45 42 197 229 222 214 291 272 420 304 165 111 64 35 36 62 91 73 100 124 59 72 138
2597 2418 2128 1688 239 1286 2184 1938 1398 929 696 556 395 236 74 3 2 0 68 20 38 61 120 178 145 254 302 276 305 321 218 158 73 33 62 59 65 79 114 153 92 99 115
1929 1419 824 747 1631 1058 1228 1358 1036 625 578 625 323 251 67 24 43 34 24 0 0 2 50 90 139 198 285 236 202 222 177 128 55 61 59 72 70 126 160 98 44 15 100
963 1100 1164 1597 1138 696 1011 1044 860 742 509 398 475 254 67 27 58 74 22 6 0 13 97 186 228 266 218 117 79 110 145 66 47 43 45 115 68 10 114 94 68 46 22
1145 749 647 582 654 548 590 640 779 683 503 489 569 215 76 4 9 31 38 22 41 60 199 213 160 140 116 54 52 63 116 82 77 69 46 34 36 1 65 49 52 144 90
1010 650 265 495 588 516 538 511 587 565 464 359 633 128 80 162 2 50 3 32 23 35 66 124 144 67 43 35 68 57 72 79 37 18 1 0 0 7 70 42 30 34 61
1216 1137 654 504 694 709 581 544 375 371 470 597 691 245 11 185 96 44 55 83 81 43 3 55 79 49 40 63 76 55 40 29 5 29 29 19 0 0 5 21 28 72 82
1007 789 846 855 822 940 757 243 41 295 522 884 434 479 234 192 127 67 40 38 26 35 48 36 31 20 1 1 0 0 0 0 0 0 0 0 1 0 0 0 0 6 36
1001 1138 1204 1265 1283 1395 1209 851 148 445 666 829 463 361 212 187 292 159 120 43 49 1 59 43 2 0 0 0 0 0 0 0 0 0 0 0 0 0 0 0 0 0 0
1363 1403 1460 1568 1428 1268 1417 1047 856 487 506 790 684 236 111 186 346 211 140 44 16 0 2 5 0 0 0 0 0 0 0 0 0 0 0 0 0 0 0 0 0 0 0
1670 1475 1444 1461 1242 1217 1146 1340 1380 711 657 517 771 194 112 63 169 99 103 96 75 1 0 0 0 0 0 0 0 0 0 0 0 0 0 0 0 0 0 0 0 0 0
1032 1026 814 601 334 265 235 393 406 567 919 431 638 252 83 54 75 71 59 39 0 0 0 0 0 0 0 0 0 0 0 0 0 0 1 0 0 0 0 0 0 0 0
543 210 91 48 0 0 0 2 45 175 537 861 419 86 83 39 41 30 4 0 0 0 0 0 0 0 0 0 3 0 0 0 0 0 0 0 0 0 0 0 0 0 0
13 2 0 0 0 0 0 0 0 18 30 583 465 4 40 30 17 0 0 0 0 0 0 0 0 0 0 0 0 0 0 0 0 0 0 0 0 0 0 0 0 0 0
0 0 0 0 1 1 0 0 0 0 0 0 0 0 0 0 0 0 0 0 0 0 0 0 0 0 0 0 0 0 0 0 0 0 0 0 0 0 0 0 0 0 0
0 0 0 2 2 2 2 0 3 1 5 4 3 2 2 2 2 2 0 0 0 0 0 0 0 0 0 0 0 0 0 0 0 0 0 0 0 0 0 0 0 0 0
0 2 1 3 5 4 1 2 2 3 2 4 6 6 5 5 4 0 0 0 0 0 0 0 0 0 0 0 0 0 0 0 0 0 0 0 0 0 0 0 0 0 0
3 2 1 4 5 4 4 3 5 3 4 4 5 5 4 3 4 4 0 0 0 0 0 0 0 1 2 1 0 0 0 0 0 0 0 0 0 0 0 0 0 0 0
4 1 2 4 5 4 5 4 4 3 4 4 4 3 3 3 2 1 1 0 0 0 0 0 0 0 0 0 0 0 0 0 0 0 0 0 0 0 0 0 0 0 0
2 1 2 2 3 2 2 2 1 0 0 0 0 0 0 0 0 0 0 0 0 0 0 0 0 0 0 0 0 0 0 0 0 0 0 0 0 0 0 0 0 0 0
1 2 2 2 2 1 0 0 0 0 0 0 0 0 0 0 0 0 0 0 0 0 0 0 0 0 0 0 0 0 0 0 0 0 0 0 0 0 0 0 0 0 0

GFSMW_con_mlcape_006.txt.gz
CAPE
382 338 1180 1395 1322 1491 1614 1664 1773 1849 1799 1648 1345 1200 821 535 549 544 609 585 466 608 448 209 162 192 367 242 242 238 117 168 273 301 292 308 436 492 366 337 552 448 423
59 257 71 295 726 1647 1745 1619 1271 1479 1560 1490 1313 865 669 427 263 195 246 344 232 247 157 170 93 52 223 250 195 237 168 143 87 160 116 122 201 167 151 358 393 429 411
18 194 112 45 447 530 616 1200 1362 1418 1382 1347 997 647 436 268 166 125 103 102 146 87 64 66 52 13 116 258 232 173 140 126 164 178 67 45 23 101 211 341 470 409 316
0 0 0 0 0 0 228 262 1063 1567 1307 990 659 408 236 195 56 46 30 7 30 44 47 67 76 47 60 211 237 252 176 109 122 194 230 128 129 57 8 45 177 339 331
283 3 4 0 2 0 156 378 1222 1304 980 775 391 231 7 10 0 0 0 0 9 17 12 62 64 57 65 128 215 239 196 146 100 101 114 121 108 64 48 12 0 65 176
1152 659 105 92 548 1076 745 579 1377 1002 711 443 107 4 0 0 0 0 2 2 2 8 0 58 78 106 113 181 181 265 154 148 116 53 21 40 59 55 47 26 2 11 29
1334 1013 716 1222 1623 240 96 1337 912 519 263 142 59 23 0 0 0 12 16 5 0 11 0 67 95 120 161 163 229 177 176 113 92 37 23 35 75 75 28 5 6 29 53
1572 1054 382 434 1240 1117 1418 978 580 398 296 148 101 10 0 0 21 37 22 0 0 0 16 59 74 97 154 158 142 204 221 160 90 58 25 47 79 87 41 30 39 32 27
1320 869 1014 968 1151 1260 1205 760 422 264 327 176 133 0 0 0 1 9 6 0 0 16 35 60 80 109 136 168 162 94 58 100 71 66 42 90 86 91 89 76 45 56 19
469 886 1056 692 735 956 812 569 569 317 181 328 189 0 0 0 0 0 25 39 38 55 81 104 126 142 158 131 59 25 64 59 58 43 44 73 63 31 36 35 27 29 29
935 1036 786 498 461 464 414 580 422 315 320 325 219 0 0 0 8 14 32 11 22 42 65 78 64 40 45 42 29 24 54 31 37 36 40 30 31 10 7 29 5 19 26
674 335 495 529 483 462 428 503 406 302 265 331 315 5 0 0 9 2 29 28 18 12 51 27 21 0 17 30 36 34 28 11 15 7 1 0 2 3 6 5 8 33 25
299 782 555 601 689 705 516 460 389 332 321 434 472 87 3 48 0 2 23 25 32 21 17 4 2 0 0 0 0 0 0 0 0 2 5 7 0 0 0 0 0 0 0
29 708 620 680 763 905 735 444 185 311 521 693 286 252 88 93 77 65 31 22 31 37 0 0 1 1 0 0 0 0 0 0 0 0 0 0 0 0 0 0 0 0 0
0 451 751 1114 1083 1172 896 702 139 375 546 751 313 124 61 87 158 57 2 0 3 7 0 0 0 0 0 0 0 0 0 0 0 0 0 1 0 0 0 0 0 0 0
164 698 693 948 815 703 571 655 578 449 549 772 396 99 135 195 85 61 20 0 0 0 0 0 0 0 0 0 0 0 0 0 0 0 1 2 1 0 0 0 0 0 0
524 517 373 201 68 0 0 107 213 276 404 581 440 159 104 61 13 19 0 0 0 0 0 0 0 0 0 0 0 0 0 0 0 0 0 0 0 0 0 0 0 0 0
365 191 39 0 0 0 0 0 0 20 260 356 384 91 33 11 4 0 0 0 0 0 0 0 0 0 0 0 0 0 0 0 0 0 0 0 0 0 0 0 0 0 0
12 3 0 0 0 0 0 0 0 0 1 235 226 28 0 0 0 0 0 0 0 0 0 0 0 0 0 0 0 0 0 0 0 0 0 0 0 0 0 0 0 0 0
0 0 0 0 0 0 0 0 0 0 0 0 0 7 0 0 0 0 0 0 0 0 0 0 0 0 0 0 0 0 0 0 0 0 0 0 0 0 0 0 0 0 0
0 0 0 0 0 0 0 0 0 0 3 3 1 2 1 0 0 0 0 0 0 0 0 0 0 0 0 0 0 0 0 0 0 0 0 0 0 0 0 0 0 0 0
0 0 0 0 3 1 1 1 1 4 3 2 2 3 3 5 3 0 1 0 0 0 0 0 0 0 0 0 0 0 0 0 0 0 0 0 0 0 0 0 0 0 0
1 1 1 2 4 4 3 3 4 3 2 2 4 4 3 3 3 3 4 3 0 0 0 0 0 1 1 0 0 0 0 0 0 0 0 0 0 0 0 0 0 0 0
0 0 0 0 3 4 3 3 3 2 4 4 3 4 2 2 3 2 2 1 0 0 0 0 0 1 0 0 0 0 0 0 0 0 0 0 0 0 0 0 0 0 0
0 0 0 1 4 3 3 1 0 0 0 0 0 0 0 0 0 0 0 0 0 0 0 0 0 0 0 0 0 0 0 0 0 0 0 0 0 0 0 0 0 0 0
0 0 1 2 2 1 0 0 0 0 0 0 0 0 0 0 0 0 0 0 0 0 0 0 0 0 0 0 0 0 0 0 0 0 0 0 0 0 0 0 0 0 0

GFSMW_con_mlcape_009.txt.gz
CAPE
238 550 864 1034 802 606 1298 1436 1783 1807 1465 1157 995 1066 1006 834 654 639 551 511 475 470 282 275 221 241 152 226 260 226 92 96 208 226 201 215 424 405 369 385 440 435 435
322 523 779 655 144 0 670 50 46 95 953 1090 1006 1069 772 558 386 235 215 247 253 305 236 161 153 186 68 90 255 220 85 41 157 168 92 109 222 299 299 339 406 485 445
388 361 438 71 23 157 63 0 2 8 595 1008 1012 671 484 368 232 115 59 44 51 122 116 111 77 88 102 20 126 216 95 0 73 79 53 51 38 97 146 151 335 377 404
135 193 125 0 0 41 0 0 0 22 494 818 780 668 448 279 124 29 0 11 0 2 44 58 81 76 60 49 47 209 160 47 43 77 108 81 36 22 40 121 295 468 383
100 97 211 2 2 13 0 0 0 3 614 1007 735 385 164 38 22 0 0 0 0 0 5 48 66 85 68 48 65 171 194 95 1 41 89 96 112 43 19 0 0 93 205
35 72 41 1 0 0 2 5 142 636 713 765 376 84 12 0 13 0 0 0 0 0 10 15 55 86 77 47 45 165 205 132 99 33 57 73 82 41 28 29 11 0 0
752 764 262 71 41 164 360 308 587 790 598 324 127 69 0 14 9 12 7 0 0 0 0 9 60 101 104 69 63 142 164 149 74 49 52 44 41 38 23 23 17 1 26
1204 868 627 272 410 572 501 784 892 556 327 184 185 57 22 7 0 0 0 0 0 0 0 31 64 78 96 113 127 160 155 106 87 33 29 17 23 45 43 23 17 10 0
939 964 643 1056 775 271 701 892 664 465 372 239 159 4 0 0 0 0 7 7 15 27 0 0 3 31 75 124 125 144 137 103 65 64 24 15 0 37 36 39 54 24 1
314 768 777 941 1257 1300 1059 664 393 313 258 210 59 0 0 0 12 12 0 0 2 14 33 35 59 99 110 120 113 108 87 67 30 35 49 43 31 56 63 50 27 18 11
35 902 905 868 1131 1047 736 497 402 235 207 236 37 0 0 0 7 19 12 0 12 6 10 20 24 16 13 42 35 29 21 15 11 27 32 30 40 38 31 25 7 2 3
826 899 665 562 610 558 436 488 408 256 252 227 79 7 38 0 0 7 10 8 15 29 5 10 6 0 0 0 20 31 34 33 30 24 7 3 8 15 16 8 6 4 11
726 487 382 415 411 324 330 455 359 292 209 341 180 10 21 50 0 2 7 17 10 0 0 4 0 0 0 0 0 0 0 0 0 1 0 0 2 1 0 4 0 0 7
496 321 383 368 369 341 210 346 309 250 328 391 344 174 8 38 32 16 0 1 0 0 0 0 0 0 0 0 0 0 0 0 0 0 0 0 0 0 0 0 0 0 0
596 495 558 491 406 477 285 123 3 105 339 580 268 167 56 57 54 4 0 0 0 0 0 0 0 0 0 0 0 0 0 0 0 0 0 0 0 0 0 0 0 0 0
160 557 526 510 338 195 151 160 179 213 300 667 389 146 58 85 35 0 0 0 0 0 0 0 0 0 0 0 0 0 0 0 0 0 1 2 1 2 1 0 0 0 0
116 353 251 125 46 10 0 46 92 177 314 455 721 179 144 78 38 0 0 0 0 0 0 0 0 0 0 0 0 0 0 0 1 1 1 1 1 0 0 0 0 0 0
249 171 24 0 0 0 0 0 0 0 123 212 393 176 84 19 0 0 0 0 0 0 0 0 0 0 0 0 0 0 0 0 0 0 0 0 0 0 0 0 0 0 0
24 0 0 0 0 0 0 0 0 0 0 0 142 89 28 0 0 0 0 0 0 0 0 0 0 0 0 0 0 0 0 0 0 0 0 0 0 0 0 0 0 0 0
0 0 0 0 0 0 0 0 0 0 0 0 0 16 4 0 0 0 0 0 0 0 0 0 0 0 0 0 0 0 0 0 0 0 0 0 0 0 0 0 0 0 0
2 2 1 0 0 0 1 0 0 0 2 3 1 1 1 0 2 0 0 0 0 0 0 0 0 0 0 0 0 0 0 0 0 0 0 0 0 0 0 0 0 0 0
3 2 0 0 2 1 1 0 0 3 2 2 2 6 5 4 3 0 0 0 0 0 0 0 0 0 0 0 0 0 0 0 0 0 0 0 0 0 0 0 0 0 0
0 0 0 2 3 3 2 2 4 3 3 2 3 4 3 3 4 4 4 1 0 0 0 0 0 0 0 0 0 0 0 0 0 0 0 0 0 0 0 0 0 0 0
0 0 0 0 3 3 3 4 2 2 1 1 2 1 0 0 1 0 1 2 0 0 0 0 1 1 0 0 0 0 0 0 0 0 0 0 0 0 0 0 0 0 0
0 0 0 2 3 3 1 0 0 0 0 1 1 1 1 1 0 0 0 0 0 0 0 0 0 0 0 0 0 0 0 0 0 0 0 0 0 0 0 0 0 0 0
0 0 2 2 3 0 0 0 0 0 0 0 0 0 0 0 0 0 0 0 0 0 0 0 0 0 0 0 0 0 0 0 0 0 0 0 0 0 0 0 0 0 0

GFSMW_con_mlcape_015.txt.gz
CAPE
1153 1071 1287 978 705 371 128 109 8 105 42 345 779 1057 1142 1383 1130 1161 1017 783 877 982 1043 992 842 539 450 765 879 714 712 681 794 494 411 499 655 725 1030 1067 719 776 790
1076 717 1011 1089 801 184 81 11 27 47 0 97 211 791 966 920 701 553 509 444 419 520 571 616 816 494 595 338 526 624 582 509 774 334 348 231 423 550 803 993 984 995 1030
457 424 599 726 816 169 47 1 13 2 0 3 244 513 874 683 683 459 277 198 151 198 220 241 364 838 240 152 162 296 285 353 579 635 269 170 111 391 715 905 1102 1058 1152
300 473 471 429 209 18 5 0 0 0 0 8 203 714 839 592 165 84 77 98 68 51 113 245 224 366 289 154 95 250 207 578 447 476 392 233 122 121 219 573 796 992 1076
263 223 458 278 152 143 166 0 0 0 6 73 552 779 365 69 11 64 75 132 88 68 103 119 316 457 419 222 73 112 261 322 521 349 432 309 279 177 109 187 425 502 669
271 350 254 181 160 120 85 0 0 21 452 953 593 177 26 0 13 40 66 79 62 73 181 134 228 395 490 352 172 203 243 233 491 594 435 266 190 179 184 130 135 222 261
232 265 183 87 57 86 32 36 22 75 491 688 193 60 21 0 5 41 53 53 27 62 119 125 181 291 298 162 135 338 268 315 429 601 494 401 228 274 201 139 175 196 241
191 215 238 195 144 50 35 34 120 207 599 457 175 50 4 0 19 68 57 43 68 111 211 249 241 185 88 105 137 450 452 458 474 557 586 517 406 166 133 164 117 131 217
759 717 485 279 178 106 295 501 518 701 822 356 280 37 0 0 0 0 34 42 85 108 213 253 363 412 464 464 502 470 378 390 437 489 572 436 243 96 136 222 167 114 91
1516 1163 885 554 300 266 549 867 952 1089 583 407 341 22 5 4 49 76 31 64 58 25 78 105 236 300 377 469 389 354 364 325 254 329 417 417 426 305 165 169 280 239 139
1364 1433 1293 1056 527 659 603 842 1012 737 548 441 388 25 35 25 10 31 49 81 57 36 37 19 20 59 216 320 275 186 179 132 161 134 132 313 413 386 349 363 307 230 168
1325 1381 1585 1201 902 860 956 863 803 610 566 505 468 68 155 61 29 40 49 62 44 33 36 5 8 3 3 79 182 128 137 96 83 77 99 160 223 231 256 217 130 35 19
813 1177 1153 831 472 1364 983 752 637 525 504 569 563 157 201 286 79 33 32 2 3 9 10 3 3 3 4 2 1 0 0 0 0 17 67 48 67 42 44 26 23 19 41
1160 1237 547 167 224 929 831 688 675 687 511 503 552 390 232 326 162 36 19 2 3 2 2 4 3 3 3 3 4 3 2 1 2 1 1 0 0 0 0 0 1 7 8
1309 362 147 249 853 826 643 561 737 627 569 537 551 643 278 241 117 8 3 3 2 4 3 3 3 1 0 0 3 3 4 1 0 0 1 3 3 0 0 0 0 0 1
1083 829 488 626 799 674 571 421 400 500 461 502 583 769 457 216 85 0 3 2 1 2 3 3 3 2 0 0 0 2 3 3 4 2 3 1 2 4 0 0 0 0 0
1024 871 638 427 302 270 210 204 118 124 267 352 578 651 417 272 55 1 2 2 2 3 1 3 3 3 2 0 0 0 2 3 3 3 1 0 0 0 0 0 0 0 0
664 324 137 50 6 0 5 5 36 64 50 63 229 668 330 205 9 2 3 1 3 3 0 0 0 0 0 0 0 0 0 0 0 0 0 0 0 0 0 0 0 0 0
257 87 7 2 0 0 0 0 0 0 1 2 0 75 120 39 2 3 2 1 2 4 2 1 0 0 0 0 0 0 0 0 0 0 0 0 0 0 0 0 0 0 0
0 0 4 2 0 0 1 0 0 0 0 0 0 0 45 19 2 4 4 3 1 2 0 0 0 0 0 0 0 0 0 0 0 0 0 0 0 0 0 0 0 0 0
0 1 0 0 0 0 1 0 0 1 2 2 2 0 0 1 2 4 3 2 0 2 0 0 0 0 0 0 0 0 0 0 0 0 0 0 0 0 0 0 0 0 0
5 5 1 1 1 3 2 2 1 3 3 2 2 2 1 2 3 3 5 2 3 3 1 0 0 0 0 0 0 0 0 0 0 0 0 0 0 0 0 0 0 0 0
4 3 1 2 2 2 3 0 3 4 2 2 2 4 3 3 3 3 4 3 5 5 5 0 0 0 0 0 0 0 0 0 0 0 0 0 0 0 0 0 0 0 0
5 3 3 3 1 3 3 4 4 3 2 2 3 4 3 3 2 1 1 0 0 0 0 3 1 1 0 0 0 0 0 0 0 0 0 0 0 0 0 0 0 0 0
5 3 3 2 1 2 1 3 2 2 1 2 4 3 2 1 0 0 0 0 0 0 0 1 2 0 0 0 0 0 0 0 0 0 0 0 0 0 0 0 0 0 0
3 3 2 2 2 0 0 0 0 0 1 1 2 2 1 0 0 0 0 0 0 0 0 0 0 0 0 0 0 0 0 0 0 0 0 0 0 0 0 0 0 0 0

GFSMW_con_mlcape_021.txt.gz
CAPE
2265 2255 2238 2234 2853 2649 2513 2014 1761 1322 655 448 521 998 913 703 851 1493 1209 1417 1479 1287 1009 1059 949 956 1015 1059 1304 989 782 617 545 733 543 220 278 526 1199 1019 914 1082 1247
2468 2531 2689 2830 2945 2501 1960 1722 1463 436 290 274 169 1091 1177 1489 1337 1487 1482 1432 1166 1068 1069 1198 1253 1132 994 932 893 918 811 1045 803 601 285 143 19 129 841 1048 1102 1336 1189
2622 2686 2768 2398 2245 2172 1618 1610 715 289 139 315 807 1344 1481 1734 1361 1244 665 603 705 522 398 523 683 959 1006 1009 710 805 755 738 697 705 317 107 20 47 954 1349 1083 1012 1061
2608 2734 2261 2150 2052 1880 1770 1371 1362 611 158 44 59 1048 1467 1015 708 371 504 621 590 410 322 359 366 557 733 1035 765 885 720 540 237 533 649 419 285 335 173 727 949 1043 974
2213 1939 1868 1988 2064 1134 1117 1226 975 515 815 995 1244 1430 1413 375 401 345 431 617 604 616 359 333 387 506 586 643 970 1041 720 585 470 484 378 493 200 372 473 541 117 705 947
1730 1653 1873 1857 1351 1314 912 936 1018 839 1037 1012 1453 1616 718 573 461 531 387 134 98 455 411 534 502 412 672 630 733 768 764 674 429 110 454 368 297 191 459 327 135 157 218
1544 1788 1817 1578 1482 1258 617 777 927 966 1377 1567 1360 875 855 711 557 595 224 370 177 367 638 584 643 598 590 678 807 962 738 643 466 135 351 465 315 313 345 491 133 201 210
1427 1587 1576 1490 1432 1085 1008 1214 1533 1898 1588 1336 1039 932 815 475 379 499 381 489 429 364 566 388 465 436 456 596 695 622 693 672 678 329 553 638 402 258 269 436 303 271 198
1252 1507 1490 1366 1359 1113 1122 1157 1453 1608 1487 1322 997 911 812 718 677 601 540 290 601 573 506 460 449 564 592 608 738 693 709 685 801 662 398 653 452 320 305 302 405 315 123
1359 1515 1600 1494 1232 1281 1253 1497 1640 1731 1512 1045 848 712 671 683 719 592 407 522 580 338 211 245 390 384 616 729 758 1009 936 866 811 688 743 744 657 630 666 575 453 399 357
1679 1570 1653 1519 1289 1633 1541 1624 1801 1596 1001 993 696 670 652 628 624 470 478 375 358 136 85 80 128 221 493 643 788 563 601 558 530 367 330 454 741 738 530 571 678 455 599
1847 1855 1848 1641 1410 1516 1523 1576 1356 1007 920 1002 878 805 731 655 578 441 319 256 205 187 90 18 28 54 47 127 103 47 50 71 42 94 144 178 254 493 667 801 719 592 533
2068 2043 1995 1662 1551 1601 1134 1119 754 838 815 1083 983 812 784 863 667 455 260 139 108 63 17 4 2 32 46 12 10 5 3 4 4 2 0 3 33 0 30 11 30 44 91
2233 2164 2185 1989 1859 1187 1261 1367 882 744 956 988 902 857 869 881 810 464 210 139 54 55 2 5 3 13 8 9 4 6 3 3 4 3 4 4 3 4 3 0 0 1 1
2092 2430 2317 1837 1279 1151 1377 1495 1273 1071 1084 1101 966 972 996 891 841 457 193 62 9 6 0 0 2 4 4 2 10 1 1 3 3 3 2 1 1 0 0 1 1 2 0
2084 2450 1847 1280 1262 1598 1780 1492 1550 1442 1180 1032 970 1133 1146 1035 972 506 111 36 2 8 3 3 0 2 0 0 0 2 8 0 1 4 3 2 0 0 0 0 0 0 3
2045 2361 1454 1521 1857 1831 1893 1813 1731 1951 1676 1599 1404 1332 1324 1144 1061 614 172 0 3 2 4 5 5 3 0 0 0 0 1 2 1 0 0 0 0 0 0 0 0 0 0
2250 1896 1403 1943 2182 2149 2009 1783 1432 1454 1437 1401 1192 1281 1424 1599 1258 790 135 1 1 1 0 3 0 0 0 0 0 0 5 2 2 1 2 0 0 0 0 0 0 0 0
2311 1860 1876 1937 1599 1406 1279 1435 1343 1262 1104 700 180 127 318 833 776 603 27 3 7 1 0 3 3 4 0 0 0 0 4 6 2 0 0 0 0 0 0 0 0 0 0
2383 1898 1244 841 531 274 482 774 545 251 23 0 1 2 3 48 300 221 2 1 0 5 3 2 1 0 0 0 0 0 3 2 0 0 0 0 0 0 0 1 1 0 0
1121 857 660 563 223 44 67 80 6 0 2 1 1 3 2 0 1 0 0 0 5 2 3 0 0 0 0 0 0 0 3 1 0 0 0 0 0 0 0 0 1 0 0
566 756 398 95 8 0 0 0 1 1 2 1 4 5 4 2 0 0 0 0 0 2 2 2 1 0 0 0 0 0 0 0 0 0 0 0 0 0 0 0 0 0 0
526 353 80 3 2 2 1 2 3 2 2 3 7 6 5 3 1 0 1 0 0 2 3 0 0 0 0 0 0 0 0 0 0 0 0 0 0 0 0 0 0 0 0
151 29 12 2 2 3 3 2 2 2 3 5 6 5 4 3 2 3 2 1 0 0 0 1 5 2 0 0 0 0 0 0 0 0 0 0 0 0 0 0 0 0 0
2 0 1 4 0 1 3 2 3 2 2 2 2 3 3 1 1 0 1 1 0 1 1 3 3 2 1 0 0 0 0 0 0 0 0 0 0 0 0 0 0 0 0
3 4 2 3 4 2 3 2 3 1 2 1 0 0 0 0 0 1 0 0 0 0 0 0 0 0 0 0 0 0 0 0 0 0 0 0 0 0 0 0 0 0 0

GFSMW_con_mlcape_024.txt.gz
CAPE
2332 2109 1987 1977 2622 2623 2459 2636 1713 1802 976 159 53 170 788 978 578 59 169 0 0 802 892 842 735 585 435 817 734 511 277 85 332 531 442 689 960 828 626 1212 986 954 991
2443 2538 2551 3406 3319 3090 2659 2373 2240 1469 437 36 75 460 837 1188 1334 967 916 530 645 996 946 707 365 438 452 408 477 382 387 336 530 477 398 131 134 313 884 906 1222 938 1244
2650 2773 2923 3297 2999 2803 2447 2115 1844 923 577 182 298 208 392 954 724 815 704 845 648 431 339 268 291 222 302 278 327 145 169 287 223 508 185 198 77 225 743 754 940 1082 1202
2624 2889 2865 2710 2309 2440 2273 2204 1394 873 435 337 80 725 617 274 674 578 731 470 595 648 458 386 402 267 241 282 328 275 217 146 106 248 295 391 557 168 113 391 583 949 863
2635 2737 2745 2459 2218 2187 1942 2254 1727 1062 669 563 390 923 593 921 625 514 328 524 500 690 359 399 380 315 269 362 182 237 272 244 263 101 99 279 315 379 176 254 197 710 648
2504 2434 2459 2355 2054 1500 1482 1555 1562 1286 1400 1394 1506 1981 1223 729 643 352 724 286 546 524 339 679 340 245 231 328 277 329 497 220 218 231 199 78 116 156 184 154 125 170 85
2025 2196 2265 2318 1612 1584 1222 1508 1375 1401 1462 1656 1602 1135 1034 841 817 598 406 540 477 515 413 460 350 250 221 438 422 203 158 267 150 258 190 50 87 131 182 145 225 34 209
2026 2126 2090 1957 1829 1373 1172 1262 1482 1314 1904 1858 1213 1173 1062 1140 702 694 540 631 596 623 520 558 389 336 476 491 563 692 553 470 327 389 265 63 228 124 197 71 100 38 130
1814 1994 1984 1847 1767 1341 1466 1661 2114 2056 1989 1218 1285 1204 987 772 742 698 487 527 654 481 312 263 407 273 647 738 627 621 342 448 436 727 666 446 252 148 273 238 151 102 57
1536 1860 1723 1693 1616 1427 1510 1623 1835 1923 1520 1350 1231 1018 885 757 458 566 460 380 212 312 199 50 115 317 460 829 503 421 362 477 437 396 321 174 195 119 288 288 334 251 156
1460 1838 1699 1605 1433 1347 1230 1584 1591 1887 1534 1276 968 799 795 730 514 474 360 186 202 141 57 27 39 3 68 239 303 189 379 293 301 166 178 242 348 235 198 356 282 212 170
1505 1671 1703 1645 1444 1587 1439 1500 1896 1503 1040 1296 943 986 877 779 439 541 440 166 141 34 3 2 122 82 4 2 1 6 17 8 2 9 38 24 120 204 237 287 327 295 286
1873 1828 1848 1657 1451 1645 1506 358 1496 1268 1154 1289 1143 982 1042 792 629 334 299 110 39 27 7 5 18 2 1 2 3 1 0 2 2 2 2 1 0 0 0 0 2 0 46
2053 2080 2037 1726 1958 1501 1202 1175 1025 923 1031 1379 1164 1011 1102 1022 715 515 315 78 52 44 2 3 6 2 2 0 1 2 2 2 2 2 1 1 0 1 2 0 0 0 0
2248 2335 2200 2305 1777 1342 1335 1396 1071 1006 1262 1334 1052 1142 964 917 702 467 329 96 6 4 4 4 2 0 0 0 3 0 1 0 1 1 0 0 0 0 0 0 0 0 0
2354 2507 2492 1977 1451 875 1643 1727 1410 1458 1501 1355 1163 1128 1062 911 663 537 257 85 1 2 4 2 0 0 0 0 0 3 0 0 1 1 1 1 0 0 0 0 0 0 0
2421 2608 2059 1438 1406 1583 2329 1705 2179 2223 1928 1874 1504 1265 1057 811 855 593 213 56 1 1 2 2 0 0 0 0 0 0 2 1 2 1 1 0 0 0 0 0 0 0 0
2549 2373 1649 1630 1994 2018 2350 2301 2053 1996 1851 1499 1221 937 979 1253 1051 589 189 46 0 0 0 2 0 0 0 0 0 0 0 0 0 0 0 0 0 0 0 0 0 0 0
2887 1782 1868 2324 2089 2107 1856 1853 1735 1701 1077 496 278 79 47 317 1270 642 175 27 0 0 1 3 2 0 0 0 0 0 0 0 0 0 0 0 0 0 0 0 0 0 0
2233 2080 2149 1438 1252 1128 1370 1498 846 403 89 4 0 0 0 0 655 458 77 0 1 0 1 1 0 0 0 0 0 0 0 0 0 0 0 0 0 0 0 1 0 0 0
1779 1529 1082 821 584 486 744 333 54 0 0 0 0 1 2 0 0 9 3 1 0 1 0 0 0 0 0 0 0 0 0 0 0 0 0 0 0 0 0 0 0 0 0
1238 952 518 217 137 191 86 0 0 0 2 1 2 2 2 1 0 0 0 0 0 0 0 1 0 0 0 0 0 0 0 0 0 0 0 0 0 0 0 0 0 0 0
899 326 27 1 0 3 0 3 2 1 1 3 3 3 3 2 1 0 0 0 0 0 0 0 0 0 0 0 0 0 0 0 0 0 0 0 0 0 0 0 0 0 0
408 101 0 1 2 1 1 2 1 1 2 4 4 3 1 2 2 1 1 1 1 0 0 0 0 0 0 0 0 0 0 0 0 0 0 0 0 0 0 0 0 0 0
34 7 0 0 1 0 0 0 1 1 2 2 1 1 2 2 0 1 1 1 0 0 0 1 1 2 0 0 0 0 0 0 0 0 0 0 0 0 0 0 0 0 0
0 0 2 2 1 3 2 2 0 0 0 0 0 0 0 0 0 0 0 0 0 0 0 0 0 0 0 0 0 0 0 0 0 0 0 0 0 0 0 0 0 0 0

GFSMW_con_mlcape_027.txt.gz
CAPE
1766 1762 1859 2157 2273 2390 2149 1791 1619 1119 504 111 14 25 136 568 627 310 64 114 12 0 62 607 398 416 292 275 142 157 196 117 166 184 46 215 339 337 575 741 898 835 864
1978 2343 2574 2468 2580 2526 2464 2197 1499 892 227 11 10 18 91 561 1080 1204 736 529 422 262 531 550 381 311 107 82 196 139 56 54 76 28 0 0 122 357 603 581 590 830 1008
2350 2847 3016 3102 3022 2669 2559 2136 1576 846 277 17 218 248 166 503 358 437 564 733 738 749 504 236 114 135 68 44 44 76 68 78 103 35 115 70 21 59 265 544 557 432 781
2671 2810 3063 2910 2742 2260 2394 1927 1506 701 466 361 116 435 470 388 441 647 362 299 392 694 445 239 292 322 248 165 126 141 95 86 64 129 194 171 142 44 92 379 415 464 554
2810 2783 2664 2445 2386 2194 2188 1799 1406 704 421 105 63 264 597 730 694 297 373 428 356 287 130 196 371 240 263 193 163 186 71 81 67 75 68 83 123 199 124 36 108 318 776
2906 2927 2670 2193 2527 2164 2332 1855 1307 743 682 1085 1230 1603 1103 581 461 337 249 325 455 333 244 252 223 244 298 160 241 220 77 66 111 103 122 58 58 58 67 101 45 23 129
2768 2702 2466 2167 1751 1527 1751 1774 1125 1348 1510 1288 1628 1084 858 834 697 285 284 346 291 272 237 367 340 296 386 379 217 150 72 80 83 102 122 151 95 55 66 74 60 37 108
2384 2326 2420 1992 1654 1415 1464 1453 858 1366 1240 1736 1133 1084 1040 607 498 311 308 306 197 271 61 174 296 327 476 551 346 350 231 98 110 119 143 87 55 66 53 76 55 46 80
2083 2139 2235 1842 1680 1240 1196 1463 1270 1056 1731 1401 1056 961 818 522 352 252 186 128 81 70 0 7 101 252 396 337 228 299 306 343 242 155 93 25 3 58 99 127 146 60 1
1942 1956 1988 1812 1665 1143 1203 1242 1359 1604 1662 1122 911 804 658 337 434 266 66 10 4 1 0 3 3 23 102 104 113 139 135 107 118 194 183 191 227 213 101 110 131 135 80
1932 1887 1829 1712 1484 1376 1649 1944 1617 1476 1339 1060 975 701 641 410 354 270 51 78 1 2 1 17 4 1 0 0 0 0 0 0 0 2 17 35 76 41 32 47 71 117 137
1748 1662 1589 1585 1489 1368 1023 384 195 959 1162 1012 693 822 557 370 356 269 57 1 1 4 2 3 3 0 2 0 0 0 1 0 0 0 0 0 0 0 3 31 46 62 106
1708 1628 1500 1428 1388 935 212 0 27 851 1205 850 835 826 633 389 267 137 57 18 3 0 1 0 0 0 0 1 0 0 1 0 0 0 0 0 0 0 0 0 0 0 0
1715 1725 1510 1437 1581 962 439 69 450 1313 1296 1111 950 912 676 514 305 207 48 13 5 0 0 0 0 0 0 2 1 0 0 0 0 0 0 0 0 0 0 0 0 0 0
2149 1851 1805 1549 1521 1126 843 765 1263 1361 1203 1377 1016 984 930 639 431 258 80 0 0 0 3 0 0 0 0 0 0 0 0 0 0 0 0 0 0 0 0 0 0 0 0
2223 2131 1813 1497 1254 1130 1232 1584 1341 1357 1306 1261 1170 1047 903 597 414 226 43 0 0 13 0 0 0 0 0 0 0 1 0 1 1 0 0 0 0 0 0 0 0 0 0
2398 2089 1735 1501 994 499 1443 1852 1765 1686 1616 1453 1304 1143 945 655 489 285 78 0 0 1 0 0 0 0 0 0 0 1 0 0 1 0 0 0 0 0 0 0 0 0 0
2521 1959 1808 1422 491 1322 2148 1999 1926 1760 1555 1136 675 535 571 719 646 343 105 0 0 0 1 0 0 0 0 0 0 0 0 0 0 0 0 0 0 0 0 0 0 0 0
2137 1809 1331 1372 2014 1986 1804 1765 1374 873 458 166 55 12 8 168 699 359 92 2 1 0 0 0 0 0 0 0 0 0 0 0 0 0 0 0 0 0 0 0 0 0 0
1894 1845 1717 1588 1445 1361 865 705 287 186 50 0 0 0 0 0 381 315 70 0 0 0 0 0 0 0 0 0 0 0 0 0 0 0 0 0 0 0 0 0 0 0 0
1585 1276 1050 941 859 597 153 219 29 10 0 0 0 0 0 0 6 67 2 1 0 0 0 0 0 0 0 0 0 0 0 0 0 0 0 0 0 0 0 0 0 0 0
963 703 545 348 217 2 31 9 0 0 0 0 0 0 0 0 0 0 0 0 0 0 0 0 0 0 0 0 0 0 0 0 0 0 0 0 0 0 0 0 0 0 0
557 241 212 44 1 0 0 0 1 0 0 0 0 1 1 1 0 0 0 0 0 0 0 0 0 0 0 0 0 0 0 0 0 0 0 0 0 0 0 0 0 0 0
217 18 13 0 0 0 0 0 0 0 0 0 0 0 0 1 1 0 0 0 0 0 0 0 0 0 0 0 0 0 0 0 0 0 0 0 0 0 0 0 0 0 0
21 0 0 0 0 0 0 0 0 0 0 0 0 0 0 0 1 1 1 0 0 0 0 0 0 0 0 0 0 0 0 0 0 0 0 0 0 0 0 0 0 0 0
0 0 0 0 1 1 0 0 0 0 0 0 0 0 0 0 0 0 0 0 0 0 0 0 0 0 0 0 0 0 0 0 0 0 0 0 0 0 0 0 0 0 0

GFSMW_con_mlcape_030.txt.gz
CAPE
1514 1570 1587 1773 1948 2016 1904 1672 1160 801 398 20 2 14 24 270 474 334 130 34 27 0 0 73 465 396 297 182 102 47 4 0 0 0 1 52 93 150 132 151 133 619 493
1596 1760 2027 2140 2108 2055 1834 1447 1005 596 193 14 3 12 75 250 663 437 454 418 339 222 175 409 242 101 93 52 15 15 54 74 79 21 4 5 11 12 151 235 263 495 571
1954 2184 2365 2385 2273 2203 1888 1525 1058 687 120 0 68 114 107 171 294 335 421 417 516 534 480 212 108 39 71 66 56 33 7 31 32 44 0 0 0 14 70 180 308 460 480
2304 2491 2538 2488 2420 2438 2111 1753 1266 573 115 113 39 162 419 513 450 301 272 244 197 120 81 53 128 132 78 82 70 84 63 43 23 6 6 0 8 13 42 83 172 500 514
2528 2581 2682 2773 2608 2304 2040 1577 1140 754 614 271 174 74 526 600 260 230 120 215 183 115 100 143 87 53 65 115 65 62 91 51 36 14 40 53 93 68 46 9 71 200 272
2773 2810 2791 2525 2261 2139 1820 1641 1056 610 442 173 397 1164 778 446 418 140 129 166 98 11 8 80 73 138 203 204 130 72 127 38 33 27 45 63 42 41 46 47 29 34 78
2659 2600 2403 2352 2150 2116 2023 1727 751 633 791 1354 1609 1051 719 699 216 165 128 29 3 0 0 39 76 174 310 273 82 85 37 20 25 42 66 97 70 31 39 30 16 29 30
2605 2446 2245 2063 1923 2077 1967 1591 696 1156 1355 1533 1086 914 609 410 175 99 16 0 0 0 0 13 120 157 250 300 233 126 102 38 30 42 55 78 77 75 23 30 28 26 55
1833 2432 1917 1737 1551 1622 1609 1435 1227 1424 1499 1116 980 757 521 305 148 43 0 0 1 2 0 3 10 37 69 63 62 84 144 84 90 105 50 33 0 14 53 77 53 26 35
1904 2094 1919 1650 1402 1344 1321 1325 936 1121 1491 1084 806 727 322 304 143 14 0 0 0 0 3 3 1 0 0 0 0 0 0 0 23 76 53 66 100 114 145 74 128 33 38
1892 2021 1732 1636 1437 1212 1204 1153 1010 1054 1119 868 758 709 406 306 123 19 0 0 0 0 2 7 0 0 0 0 0 0 0 0 0 0 0 0 0 6 26 33 38 52 34
1402 1878 1703 1541 1380 1134 1126 921 426 76 809 1089 836 759 382 311 135 0 0 0 0 0 0 0 0 0 0 0 1 0 0 0 0 0 0 0 0 0 0 0 0 1 2
593 1293 1514 1359 1229 1128 1170 342 8 82 735 1176 792 591 447 348 131 8 0 0 0 0 0 0 0 0 0 0 0 0 0 0 0 0 0 0 0 0 0 0 0 0 0
252 820 1269 1232 1091 803 69 85 19 531 1026 859 845 669 532 361 92 32 18 0 0 0 0 0 0 0 0 0 0 0 0 0 0 0 0 0 0 0 0 0 0 0 0
10 604 1013 1181 979 453 195 79 248 734 1123 1010 828 881 569 255 112 42 0 0 0 0 0 0 0 0 0 0 0 0 0 0 0 0 0 0 0 0 0 0 0 0 0
1302 996 1181 1142 1028 908 443 218 598 978 1178 1117 929 978 681 345 178 56 0 0 0 0 0 0 0 0 0 0 0 0 0 0 0 0 0 0 0 0 0 0 0 0 0
1590 1356 1456 1407 1165 915 843 862 1033 1200 1240 1282 1233 1035 775 472 172 65 0 0 0 0 0 0 0 0 0 0 0 0 0 0 0 0 0 0 0 0 0 0 0 0 0
1396 1453 1362 1158 945 1142 1655 1319 1333 1201 911 752 584 627 637 507 236 89 2 0 0 0 0 0 0 0 0 0 0 0 0 0 0 0 0 0 0 0 0 0 0 0 0
451 1576 1128 971 812 1461 1251 878 522 490 246 224 154 49 60 316 462 246 35 2 0 0 0 0 0 0 0 0 0 0 0 0 0 0 0 0 0 0 0 0 0 0 0
1100 1631 1250 1122 1056 840 394 221 136 24 41 0 0 0 0 2 457 272 40 0 0 0 0 0 0 0 0 0 0 0 0 0 0 0 0 0 0 0 0 0 0 0 0
1198 1043 948 833 551 309 318 39 0 13 0 0 0 0 0 0 116 171 16 0 0 0 0 0 0 0 0 0 0 0 0 0 0 0 0 0 0 0 0 0 0 0 0
864 529 506 269 37 17 33 0 0 0 0 0 0 0 0 0 0 20 1 0 0 0 0 0 0 0 0 0 0 0 0 0 0 0 0 0 0 0 0 0 0 0 0
545 229 250 56 0 0 0 0 1 0 0 0 0 0 0 0 0 0 0 0 0 0 0 0 0 0 0 0 0 0 0 0 0 0 0 0 0 0 0 0 0 0 0
217 0 0 0 0 0 0 0 0 0 0 0 0 0 0 0 0 0 0 0 0 0 0 0 0 0 0 0 0 0 0 0 0 0 0 0 0 0 0 0 0 0 0
47 7 0 0 0 0 0 0 0 0 0 0 0 0 0 0 0 0 0 0 0 0 0 0 0 0 0 0 0 0 0 0 0 0 0 0 0 0 0 0 0 0 0
0 0 0 0 0 1 0 0 0 0 0 0 0 0 0 0 0 0 0 0 0 0 0 0 0 0 0 0 0 0 0 0 0 0 0 0 0 0 0 0 0 0 0

GFSMW_con_mlcape_033.txt.gz
CAPE
1458 1568 1636 1760 1837 1727 1718 1824 1446 1035 730 321 14 9 87 177 365 365 213 49 13 0 0 59 102 238 175 129 98 32 23 0 0 0 0 0 0 83 138 159 205 297 454
1538 1582 1665 1815 1876 1864 1740 1572 1167 810 387 52 6 10 40 255 378 432 397 290 272 109 49 104 271 66 27 12 0 0 0 0 0 0 1 10 2 0 20 89 120 199 249
1576 1704 1752 1812 1834 1789 1675 1314 978 571 146 32 111 126 148 194 250 341 362 239 383 336 249 140 85 50 31 14 0 0 0 0 6 1 5 3 0 4 4 57 149 251 290
1675 1765 1806 1816 1797 1835 1510 1109 945 459 95 143 227 196 353 375 423 250 195 137 120 100 103 88 73 29 14 30 17 1 7 9 0 5 15 0 0 0 2 30 47 160 253
1685 1843 1924 1961 1999 1869 1741 1355 902 367 156 243 165 197 600 409 218 140 174 152 54 5 38 84 53 22 58 73 60 15 15 14 16 0 0 0 12 19 25 12 16 16 89
2353 1705 2379 2227 2243 1857 1623 1253 992 637 534 312 374 923 625 494 224 183 142 82 0 0 0 3 25 89 123 166 31 16 44 45 2 3 2 5 18 39 69 53 35 5 37
794 1 0 2118 2057 1661 1529 1328 657 560 418 514 1505 891 689 415 259 160 62 0 0 0 0 20 51 60 166 169 55 24 8 8 5 3 3 24 22 23 21 15 18 17 13
0 117 0 1566 1890 1628 1621 1226 542 544 1098 1346 1036 736 501 260 142 84 15 0 0 0 1 7 4 13 56 69 65 44 29 0 0 1 12 19 46 67 29 9 6 0 33
36 427 547 1549 1817 1775 1618 1005 687 1104 1289 1179 894 578 370 211 129 20 0 0 0 2 3 2 0 0 0 0 0 0 0 1 9 10 1 10 0 37 61 36 11 8 2
401 630 1174 1521 1635 1637 1397 1052 910 1005 1428 1013 771 510 197 179 53 11 0 0 0 4 0 0 0 0 0 0 0 0 0 0 0 0 0 4 14 11 38 50 34 15 0
1024 1413 1284 1279 1292 1262 1160 966 1018 835 895 963 767 360 240 103 24 6 0 0 0 0 0 0 0 0 0 0 0 0 0 0 0 0 0 0 0 0 7 37 37 10 0
1419 1796 1380 1126 1127 1026 992 864 598 408 277 905 715 508 280 98 28 0 0 0 0 0 0 0 0 0 0 0 0 0 0 0 0 0 0 0 0 0 0 0 0 3 2
1544 1737 1488 1145 1070 840 923 912 431 115 125 925 711 556 307 142 42 0 0 0 0 0 0 0 0 0 0 0 0 0 0 0 0 0 0 0 0 0 0 0 0 0 0
1172 1577 1416 1090 954 758 729 736 235 29 207 821 727 571 347 172 42 9 0 0 0 0 0 0 0 0 0 0 0 0 0 0 0 0 0 0 0 0 0 0 0 0 0
33 565 1191 1117 986 790 661 207 71 41 468 947 767 603 356 205 76 58 1 0 0 0 0 0 0 0 0 0 0 0 0 0 0 0 0 0 0 0 0 0 0 0 0
51 57 464 698 814 469 398 53 0 141 756 1152 886 697 437 193 133 53 0 0 0 0 0 0 0 0 0 0 0 0 0 0 0 0 0 0 0 0 0 0 0 0 0
376 227 5 160 401 95 13 67 0 210 935 1232 1049 885 600 361 196 68 4 0 0 0 0 0 0 0 0 0 0 0 0 0 0 0 0 0 0 0 0 0 0 0 0
209 939 12 306 677 35 196 82 162 460 965 1167 997 817 580 403 215 94 15 0 0 0 0 0 0 0 0 0 0 0 0 0 0 0 0 0 0 0 0 0 0 0 0
195 1152 665 749 823 624 397 329 516 719 616 466 212 143 267 447 252 164 36 0 0 0 0 0 0 0 0 0 0 0 0 0 0 0 0 0 0 0 0 0 0 0 0
674 319 908 880 829 604 482 611 430 224 5 40 1 0 0 66 288 308 74 0 0 0 0 0 0 0 0 0 0 0 0 0 0 0 0 0 0 0 0 0 0 0 0
889 777 660 543 378 180 183 196 36 0 0 0 0 0 0 0 120 194 75 0 0 0 0 0 0 0 0 0 0 0 0 0 0 0 0 0 0 0 0 0 0 0 0
645 420 415 275 94 8 6 0 0 0 0 0 0 0 0 0 12 116 2 0 0 0 0 0 0 0 0 0 0 0 0 0 0 0 0 0 0 0 0 0 0 0 0
602 219 269 74 0 0 0 0 1 1 1 0 0 0 0 0 0 0 0 0 0 0 0 0 0 0 0 0 0 0 0 0 0 0 0 0 0 0 0 0 0 0 0
149 60 46 1 0 1 0 0 2 0 1 1 0 0 0 0 0 0 0 0 0 0 0 0 0 0 0 0 0 0 0 0 0 0 0 0 0 0 0 0 0 0 0
1 0 0 0 0 0 0 1 2 0 0 0 0 0 0 0 0 1 0 0 0 0 0 0 0 0 0 0 0 0 0 0 0 0 0 0 0 0 0 0 0 0 0
0 0 0 0 0 0 0 0 0 0 0 0 0 0 0 0 0 0 0 0 0 0 0 0 0 0 0 0 0 0 0 0 0 0 0 0 0 0 0 0 0 0 0

GFSMW_con_mlcape_036.txt.gz
CAPE
1240 1194 1246 1339 1373 1360 1376 1477 1229 828 528 367 89 2 41 60 79 156 135 51 37 30 0 0 72 136 180 145 75 40 69 29 0 0 0 0 0 0 38 89 88 206 411
1370 1401 1382 1409 1415 1410 1443 1357 971 688 406 51 0 8 36 76 151 134 379 347 324 159 67 70 165 147 52 25 19 1 9 0 0 0 0 4 1 0 10 93 138 168 219
1458 1575 1617 1598 1542 1475 1392 1206 873 507 108 26 105 111 96 114 190 168 195 142 171 136 100 43 49 14 0 0 0 0 8 16 1 0 10 1 2 1 3 30 62 144 223
1085 222 0 0 101 1193 1121 922 596 307 50 151 139 127 308 278 238 177 111 106 58 10 9 44 31 24 15 12 11 9 0 0 3 3 1 0 0 0 1 18 8 136 192
1085 251 0 0 0 0 539 871 550 235 66 216 345 365 445 281 176 124 139 75 0 0 0 17 0 19 22 26 38 27 27 3 2 0 1 26 19 10 6 1 8 17 80
825 61 18 0 0 15 61 1048 624 160 128 143 340 436 456 246 189 158 104 7 0 0 0 6 18 9 22 89 26 10 8 30 40 33 8 2 30 32 14 10 9 13 43
1280 551 21 40 39 5 496 958 534 326 236 166 1157 662 488 263 170 84 13 0 0 0 0 0 0 0 32 37 17 3 0 12 12 0 1 17 33 27 38 35 24 19 3
441 25 114 4 16 557 1210 926 537 424 327 899 916 587 315 201 87 20 0 0 0 1 4 0 0 0 0 0 0 1 0 0 0 0 9 26 38 48 37 34 31 10 4
21 552 430 728 1366 1541 1228 602 373 459 1029 972 596 393 208 142 29 0 0 0 0 0 0 0 0 0 0 0 0 0 0 0 0 1 4 9 18 59 60 20 4 13 1
208 407 613 1499 1815 1499 1244 423 473 779 853 676 495 300 185 107 0 0 0 0 0 0 0 0 0 0 0 0 0 0 0 0 0 0 0 2 7 8 36 47 23 12 6
193 511 1076 1604 1767 1509 1070 423 848 644 565 611 386 213 209 102 13 0 0 0 0 0 0 0 0 0 0 0 0 0 0 0 0 0 0 0 0 0 4 41 55 23 1
554 739 1185 1365 1371 1224 908 707 714 337 183 80 464 320 216 115 38 0 0 0 0 0 0 0 0 0 0 0 0 0 0 0 0 0 0 0 0 0 0 0 0 10 0
860 1384 1327 1142 933 863 787 745 573 139 61 566 484 448 316 187 41 0 0 0 0 0 0 0 0 0 0 0 0 0 0 0 0 0 0 0 0 0 0 0 0 0 1
411 1319 1183 523 421 580 775 659 353 173 249 697 633 526 355 217 46 7 0 0 0 0 0 0 0 0 0 0 0 0 0 0 0 0 0 0 0 0 0 0 0 1 0
262 818 1021 657 453 333 457 312 54 153 300 881 845 603 351 183 74 39 3 0 0 0 0 0 0 0 0 0 0 0 0 0 0 0 0 0 0 0 0 0 0 0 0
115 186 182 602 234 157 246 205 26 0 94 608 951 645 399 204 137 47 8 0 0 0 0 0 0 0 0 0 0 0 0 0 0 0 0 0 0 0 0 0 0 0 0
124 418 347 431 46 1 0 64 30 8 39 730 921 769 528 360 173 39 1 0 0 0 0 0 0 0 0 0 0 0 0 0 0 0 0 0 0 0 0 0 0 0 0
33 291 476 154 68 4 0 0 6 68 10 581 977 789 639 426 197 50 15 0 0 0 0 0 0 0 0 0 0 0 0 0 0 0 0 0 0 0 0 0 0 0 0
161 229 646 419 213 61 3 16 103 89 44 277 551 521 481 345 258 118 31 2 0 0 0 0 0 0 0 0 0 0 0 0 0 0 0 0 0 0 0 0 0 0 0
590 622 638 874 591 197 54 71 112 71 91 20 64 62 126 226 289 155 43 0 0 0 0 0 0 0 0 0 0 0 0 0 0 0 0 0 0 0 0 0 0 0 0
498 525 596 533 253 143 253 277 122 91 0 0 0 0 0 2 59 124 14 0 0 0 0 0 0 0 0 0 0 0 0 0 0 0 0 0 0 0 0 0 0 0 0
318 236 249 172 56 38 65 27 5 1 0 0 0 0 0 0 6 23 0 0 0 0 0 0 0 0 0 0 0 0 0 0 0 0 0 0 0 0 0 0 0 0 0
392 175 224 90 0 0 1 7 0 0 0 0 0 0 0 0 0 0 0 0 0 0 0 0 0 0 0 0 0 0 0 0 0 0 0 0 0 0 0 0 0 0 0
280 78 64 35 0 0 0 1 2 1 1 0 0 0 0 0 0 0 0 0 0 0 0 0 0 0 0 0 0 0 0 0 0 0 0 0 0 0 0 0 0 0 0
47 9 0 0 0 0 0 0 0 0 0 0 0 0 0 0 0 0 0 0 0 0 0 0 0 0 0 0 0 0 0 0 0 0 0 0 0 0 0 0 0 0 0
5 0 0 0 0 0 0 0 0 0 0 0 0 0 0 0 0 0 0 0 0 0 0 0 0 0 0 0 0 0 0 0 0 0 0 0 0 0 0 0 0 0 0

GFSMW_con_mlcape_042.txt.gz
CAPE
1817 2160 2231 1911 1356 568 0 0 0 687 1129 1247 1000 313 17 0 41 5 82 422 701 605 1289 1154 1010 972 902 682 850 738 544 455 487 453 226 225 495 546 297 155 57 69 119
2314 1974 1685 1624 1147 310 492 640 692 1910 2105 1698 986 530 38 73 31 86 194 806 440 970 942 852 705 825 728 894 682 639 549 418 527 301 282 112 232 316 479 405 373 415 203
2314 1803 1589 1528 849 512 955 1140 1662 2276 1881 719 527 271 235 188 129 268 859 1028 793 719 753 710 680 761 687 170 548 501 558 226 348 381 305 362 76 452 529 553 520 656 596
2178 1985 1679 831 929 1170 927 278 958 1923 1086 936 688 424 325 351 1070 803 944 815 729 551 467 503 440 488 333 456 482 511 518 414 231 311 340 444 594 578 494 484 669 748 603
2041 1935 1324 234 598 692 1521 1520 1760 1222 974 1118 928 1063 933 1113 882 888 954 869 482 232 216 364 419 538 615 630 645 631 531 372 308 374 216 323 420 636 600 443 258 351 172
1791 1710 1334 370 475 589 1437 1675 1557 945 978 928 1342 1351 1041 1136 909 908 458 151 60 67 144 336 112 247 582 676 704 773 661 420 374 229 35 215 338 257 623 546 489 347 62
1816 818 640 468 358 333 821 1754 1443 835 873 924 1197 1376 1341 1375 1112 505 160 51 3 4 100 319 135 153 547 661 787 613 632 641 508 429 289 333 456 691 779 681 261 10 75
1524 1372 1128 575 313 275 742 1312 1648 867 840 1174 1538 1730 1312 841 489 248 113 24 1 5 12 158 123 178 398 514 368 215 292 589 563 603 597 604 742 855 812 416 400 122 17
2755 1537 1114 391 1202 1027 1252 1827 1625 1012 802 1309 1741 1398 1354 737 456 300 166 42 5 2 8 4 3 83 129 242 293 171 112 160 212 351 499 576 840 937 930 127 28 122 79
963 1145 1812 2025 2453 2534 2127 1851 1417 1045 1170 1456 1336 1113 916 675 406 197 119 115 57 5 8 2 2 15 49 99 118 63 46 155 162 177 182 317 435 488 641 757 125 34 60
963 1451 1800 2544 2752 2113 1484 1406 1161 1275 357 623 1131 938 696 445 228 89 86 82 5 2 4 4 6 5 7 6 7 13 7 1 4 7 17 23 138 261 384 498 548 428 176
1412 1507 1844 2755 2252 903 293 953 974 591 145 247 928 938 656 359 187 73 80 50 1 3 3 1 3 2 4 8 7 5 7 4 0 1 5 10 10 57 23 161 120 304 293
1627 2024 2088 2415 1424 35 272 994 991 375 48 319 879 931 742 484 313 169 98 43 6 1 1 0 0 0 0 0 2 4 4 7 2 2 5 3 8 3 1 5 3 3 6
1633 2284 2155 1755 121 0 51 1499 961 502 184 204 875 859 846 705 433 278 172 60 11 1 1 2 0 0 0 0 0 0 0 2 6 8 6 5 2 2 5 5 9 9 3
1959 1965 1891 1485 81 2 444 1458 1187 690 439 328 588 994 945 848 667 395 220 90 25 0 0 1 1 0 0 0 0 0 0 0 0 4 1 0 0 0 0 5 9 10 9
879 1614 1987 1861 254 279 425 1300 1398 833 398 424 585 885 1202 1031 794 549 270 155 52 2 1 0 0 0 0 0 0 0 0 0 0 0 0 0 0 0 0 0 0 0 14
1108 1356 1575 1837 880 742 715 1197 1186 1058 503 649 799 1140 1264 1141 972 703 354 155 90 4 3 5 5 1 0 0 0 0 0 0 0 0 0 0 0 0 0 0 0 0 0
704 968 1711 1763 1266 726 1070 653 334 331 874 804 912 1514 1269 1208 885 745 487 253 98 2 0 0 6 2 0 0 0 0 0 0 0 0 0 0 0 0 0 0 0 0 0
1687 1841 2025 1722 1971 1289 909 557 85 67 442 729 799 1072 1326 1141 944 408 492 264 89 12 0 0 8 2 0 0 0 0 0 0 0 0 0 0 0 0 0 0 0 0 0
1203 1424 1798 1630 1134 1047 531 302 152 92 705 573 722 326 609 899 580 561 650 154 62 8 0 0 2 0 0 0 0 0 0 0 0 0 0 0 0 0 0 0 0 0 0
839 1218 1825 1671 1374 1128 783 635 589 729 823 199 141 130 227 332 469 486 372 75 5 5 1 0 0 0 0 0 0 0 0 0 0 0 0 0 0 0 0 0 0 0 0
674 612 623 494 394 505 938 786 134 4 30 56 130 106 40 89 313 250 149 19 0 1 0 0 0 0 0 0 0 0 0 0 0 0 0 0 0 0 0 0 0 0 0
829 793 700 531 172 161 207 479 68 15 8 3 2 1 1 1 34 120 3 1 1 1 0 0 0 0 0 0 0 0 0 0 0 0 0 0 0 0 0 0 0 0 0
1137 1007 744 520 248 49 65 48 5 2 2 3 2 4 0 0 1 1 3 1 2 0 0 0 0 0 0 0 0 0 0 0 0 0 0 0 0 0 0 0 0 0 0
928 786 538 350 53 19 4 3 3 3 5 5 5 4 3 3 0 0 2 3 1 0 0 1 0 0 0 0 0 0 0 0 0 0 0 0 0 0 0 0 0 0 0
903 680 543 407 98 48 7 2 3 2 3 3 5 4 4 3 5 3 1 0 0 0 0 0 0 0 0 0 0 0 0 0 0 0 0 0 0 0 0 0 0 0 0

GFSMW_con_mlcape_045.txt.gz
CAPE
1785 2260 2410 1665 293 246 120 0 0 0 435 1346 1268 793 85 15 10 12 65 103 135 943 1078 1257 1131 1035 870 1089 1069 1030 767 443 616 777 426 379 493 467 461 414 106 113 514
2041 2639 2545 662 209 370 132 212 3 534 1377 1787 1366 913 150 33 40 39 79 184 428 921 962 1058 918 964 1094 959 953 796 643 874 923 657 625 383 281 324 316 454 342 128 104
2907 2868 2531 1245 1101 975 478 1833 484 1931 2117 1243 865 467 331 250 45 102 270 472 687 815 767 850 703 986 986 133 736 791 767 619 553 604 370 328 296 183 512 570 439 601 593
2961 2623 2418 1297 1643 1127 1782 1931 2350 2374 1556 1031 642 470 398 483 796 949 973 776 823 672 447 427 431 439 398 605 635 608 792 826 440 595 423 322 507 329 147 467 609 995 928
2723 2543 2462 1046 1558 1623 1328 1021 2504 2080 1384 1379 1081 1063 902 1135 1157 1089 1121 506 746 324 238 408 714 937 1061 1161 1112 878 905 763 430 386 408 373 405 444 795 179 401 273 109
2593 2553 2206 744 1328 1287 1593 1954 2294 1715 1404 1225 1401 1421 1302 1309 994 571 445 272 191 224 341 430 503 507 774 1009 1042 1060 730 783 664 500 363 352 530 427 455 561 208 164 26
2429 1920 1203 857 921 1162 1657 2021 2036 1592 1323 1123 1242 1371 1418 1460 1245 679 310 225 116 103 424 501 580 632 764 778 822 835 839 610 534 644 612 590 614 745 934 635 209 111 70
2102 2055 1554 880 816 817 1423 1718 1838 1460 1197 1120 1418 1422 1288 867 575 437 289 123 124 202 222 354 312 460 593 614 429 295 379 410 672 675 693 761 770 906 996 613 295 53 71
2520 2113 1076 914 804 649 1059 1896 1742 1362 1079 1327 1627 1212 1159 747 616 381 317 125 207 120 146 62 69 86 146 134 280 251 371 492 522 494 553 607 699 665 340 71 282 231 12
2664 1513 1475 2151 1724 1664 2023 2179 1820 1379 1107 1278 1431 997 963 706 463 286 279 216 136 116 89 16 26 25 29 82 202 156 53 92 143 251 372 451 601 745 941 388 265 119 135
1540 1914 2361 2479 2868 2590 2138 1906 1576 1251 1386 1179 1040 831 769 583 264 199 188 163 107 82 85 16 61 53 29 17 28 62 1 2 2 5 45 55 292 306 506 663 774 517 355
1533 1614 2287 2475 2689 2146 1070 1553 1476 1353 674 776 942 910 713 396 257 176 192 134 86 76 55 12 15 7 4 3 2 6 7 1 1 9 4 9 9 17 63 177 284 384 293
1672 1702 2068 2618 2763 1392 1282 1419 1201 567 267 262 794 808 625 522 338 231 211 137 58 29 12 3 1 3 2 1 2 6 7 2 0 1 2 2 2 2 2 5 3 3 7
1945 2387 2355 3120 2679 707 1561 1529 1049 619 155 212 695 768 702 680 491 351 267 172 92 43 17 1 0 0 0 1 0 1 2 5 3 3 1 0 0 1 11 3 11 5 2
1892 2523 2604 2637 2299 421 1178 1561 1107 695 162 865 890 957 1129 945 556 493 408 253 147 72 3 3 1 0 0 0 0 1 1 1 1 1 0 0 0 0 0 6 11 14 1
1587 2255 2459 2756 1723 564 1239 1629 1178 912 383 278 682 1182 1203 1174 961 751 501 346 182 100 44 18 17 0 0 0 0 0 0 0 0 0 0 0 0 0 0 0 0 0 23
1375 1556 2198 2467 2035 896 1185 1641 1639 1190 935 747 870 1254 1283 1360 899 879 583 374 190 98 55 15 35 7 0 0 0 0 0 0 0 0 0 0 0 2 0 0 0 0 0
1297 1389 2311 2398 2035 1214 1418 1708 1718 1688 1190 882 938 1394 1564 1413 1157 896 804 506 270 119 5 20 12 8 0 0 0 0 1 1 2 2 0 0 0 0 0 0 0 0 0
2432 2395 2697 2162 2266 1314 1679 1183 1031 1286 890 576 865 1099 1570 1503 1450 1001 834 536 194 113 1 3 2 4 0 0 0 0 5 4 4 2 0 0 0 0 0 0 0 0 0
1865 2147 2606 2582 2435 2058 1611 1265 805 434 4 37 753 979 1146 1475 1813 995 977 667 331 171 8 2 4 1 0 0 0 0 2 0 0 0 0 0 0 0 0 0 0 0 0
1443 2164 2562 2161 2241 1762 1381 1036 683 235 286 327 626 878 673 797 1187 1085 999 907 480 78 3 3 4 0 2 0 0 0 0 0 0 0 0 0 0 0 0 0 0 0 0
1200 1522 1463 1449 1536 1910 1665 1347 1025 617 476 349 372 264 330 615 636 935 938 717 156 3 5 3 0 1 0 0 0 0 0 0 0 0 0 0 0 0 0 0 0 0 0
1174 986 1011 1099 895 935 1080 1264 454 151 184 110 124 106 63 101 269 571 431 136 1 0 2 7 4 0 0 0 0 0 0 0 0 0 0 0 0 0 0 0 0 0 0
1447 1317 1179 1096 666 515 558 411 138 61 76 82 32 5 9 5 6 154 26 1 2 1 1 1 0 0 1 0 0 0 0 0 0 0 0 0 0 0 0 0 0 0 0
1318 1148 988 840 626 245 81 49 17 37 54 5 2 3 3 2 0 0 0 2 0 0 0 0 0 2 4 2 1 0 0 0 0 0 0 0 0 0 3 0 0 0 0
1089 961 827 682 513 313 135 29 21 30 22 22 6 4 1 1 2 1 0 0 0 0 0 0 0 0 0 0 0 0 0 0 0 0 0 0 9 2 0 0 0 0 0

GFSMW_con_mlcape_048.txt.gz
CAPE
2019 2046 1049 721 109 478 892 79 40 0 646 1502 1539 239 58 0 6 0 4 10 66 99 419 482 603 713 677 631 599 842 475 630 560 471 266 451 605 754 645 494 466 297 546
2323 2161 963 695 511 768 476 549 150 1309 1621 1786 1216 540 62 32 1 0 3 44 86 232 639 623 468 348 642 568 424 443 517 530 594 249 136 12 132 468 457 422 457 382 460
2574 2389 1909 979 629 900 771 552 520 1749 2136 1491 717 377 334 20 29 36 144 210 308 322 401 387 403 366 389 573 469 465 674 525 412 341 196 87 40 78 299 247 12 390 319
3379 3166 2399 1637 1465 1318 1013 1949 1743 1602 1934 1073 518 569 621 573 450 595 535 441 474 476 441 353 192 288 406 583 412 451 709 457 302 365 296 210 128 104 12 149 307 271 392
3347 2944 2733 1919 1621 1158 1748 1501 1961 2174 1294 1327 1028 720 703 1065 1164 1026 894 211 100 286 141 172 512 644 607 757 936 1011 707 559 385 356 199 133 33 234 207 18 209 24 20
2726 3063 2636 1498 1797 1570 1582 1329 1942 2088 1681 1320 1523 1274 1411 1222 1106 574 423 182 319 162 197 279 308 469 518 630 764 470 584 574 571 319 261 110 144 186 314 160 136 3 2
2862 2932 2284 1169 1738 1478 1788 1600 1904 1792 1614 1472 1500 1450 1449 1439 1009 730 116 55 123 127 228 223 244 250 300 425 508 453 444 367 192 188 204 275 243 356 417 231 103 43 18
2929 2258 1839 1429 1200 1428 1900 2249 1885 1813 1585 1218 1502 1654 1197 786 584 542 224 197 154 143 95 100 149 192 223 192 226 337 341 166 277 359 259 206 277 412 292 195 74 51 63
2250 2412 1601 1150 1088 1396 1878 2375 1925 1767 1409 1060 1014 1197 928 898 514 278 467 197 163 264 102 4 26 4 3 187 274 65 27 243 203 203 244 291 290 209 257 76 123 58 11
2608 2032 1055 1252 1166 1041 1228 2573 2318 1809 1275 913 760 1071 1083 691 473 454 240 199 114 65 0 1 3 3 1 76 61 1 4 2 13 24 62 144 252 442 438 227 190 127 83
2271 1791 1803 2305 1834 1977 2514 2327 1895 1552 1253 616 608 937 828 668 339 360 331 197 143 104 53 66 71 73 21 20 122 18 2 1 3 5 8 15 134 186 200 199 125 77 20
1878 2104 2357 2647 2525 2372 1988 2116 1861 1624 1142 527 442 563 716 418 357 319 218 139 129 83 62 7 22 25 25 2 24 1 2 1 0 1 0 1 0 0 2 82 154 117 0
1872 1672 2266 2706 2328 1561 1408 1491 1791 1625 879 408 453 571 684 507 396 318 254 151 126 92 38 4 4 3 5 4 6 5 1 1 1 0 0 2 9 1 11 5 0 0 0
1986 2077 2398 3496 2268 1768 1543 1469 1186 802 381 362 889 731 749 666 504 393 340 281 143 84 13 3 1 3 4 0 3 0 6 0 0 0 0 0 0 0 12 9 0 0 0
2077 2870 3076 3311 2094 900 1784 1591 1353 830 254 202 781 998 920 949 673 536 470 322 211 93 31 3 1 2 0 0 0 0 0 1 0 0 0 0 0 0 0 0 0 0 0
2012 2729 2759 3005 2156 844 1419 1669 1416 994 368 478 768 1039 1048 1106 871 730 525 427 239 119 70 12 8 0 0 0 0 0 0 0 0 0 0 0 0 0 0 0 0 3 0
1477 1701 2579 2843 1960 1053 1409 1796 1420 1317 310 431 797 968 1053 1047 1124 923 502 446 280 128 54 5 0 0 0 0 0 0 0 0 0 0 0 0 0 0 0 0 0 0 0
1493 1650 2399 2517 2053 1464 1578 1731 1615 1518 1387 792 822 896 875 847 742 1105 559 444 333 155 106 51 0 0 0 0 0 0 0 0 0 0 0 0 0 0 0 0 0 0 0
2761 2763 2986 2637 2332 1794 2164 1989 1903 1804 1526 932 584 424 498 622 553 916 803 666 536 196 99 78 0 0 0 0 0 0 4 0 0 0 0 0 0 0 0 0 0 0 0
2570 2494 2819 2714 2141 2242 2274 1826 1430 1104 1327 416 103 157 199 342 416 623 1030 795 452 180 106 61 14 1 0 0 0 0 0 0 0 0 0 0 0 0 0 0 0 0 0
2323 2960 3011 2574 2464 2092 1674 1605 1125 931 471 131 0 0 54 153 242 160 431 635 565 301 102 60 6 1 0 0 0 0 0 0 0 0 0 0 0 0 0 0 0 0 0
1967 2268 2024 1984 1984 2237 1795 1683 1324 1023 730 562 17 101 230 226 215 237 170 393 417 298 113 25 1 1 0 0 0 0 0 0 0 0 0 0 0 0 0 0 0 0 0
1566 1511 1379 1424 1256 1397 1630 1909 1345 1207 919 525 428 321 210 174 203 313 752 610 415 147 77 1 0 2 0 0 0 0 0 0 0 0 0 0 0 0 0 0 0 0 0
1793 1645 1402 1057 747 521 523 670 617 503 288 186 108 55 58 58 41 56 215 213 158 96 18 12 3 0 0 0 0 0 0 0 0 0 0 0 0 0 0 0 0 0 0
1345 1261 1124 817 575 412 226 155 65 30 63 61 57 37 24 10 0 0 0 8 5 7 0 0 0 0 0 1 0 0 0 0 0 0 0 0 0 0 0 0 0 0 0
1164 994 955 833 746 492 262 62 17 28 38 55 25 11 1 0 0 0 0 1 0 0 0 0 0 0 0 0 0 0 0 0 0 0 0 0 0 0 3 2 0 0 0